Theta_e
316 316 316 316 315 313 313 313 313 313 313 312 312 311 311 311 311 311 313 320 320 318 317 314 314 315 314 310 314 314 308 308 312 315 314 316 316 319 320 320 323 328 348 351 352
314 314 314 315 313 312 311 312 313 313 313 312 311 310 309 309 310 312 317 318 319 319 318 316 313 313 314 310 312 311 307 310 311 314 314 316 316 317 319 318 319 323 352 353 352
315 315 313 312 311 311 310 309 309 309 309 310 309 308 308 308 309 313 317 318 319 319 317 317 316 313 313 313 312 311 310 311 314 315 316 315 316 318 318 317 318 318 319 334 350
314 314 314 313 312 311 310 310 309 309 308 308 308 307 307 307 309 319 317 318 317 319 317 319 318 315 310 310 313 311 312 314 314 315 315 315 317 317 318 318 319 318 318 318 319
311 311 311 311 311 311 312 311 310 309 307 307 307 308 308 309 309 311 316 319 315 317 318 319 319 315 310 311 312 309 310 313 314 315 316 315 315 315 317 318 318 318 318 318 318
311 312 312 312 312 312 311 310 310 308 307 306 306 310 309 309 308 311 311 310 310 318 318 318 319 318 312 312 310 312 312 313 313 313 313 313 314 315 317 318 318 318 318 318 319
306 306 307 308 308 308 308 307 306 306 304 303 304 309 310 307 307 307 313 316 315 314 318 318 316 315 313 313 315 313 311 312 311 312 310 314 313 314 317 318 318 318 318 317 318
301 301 301 300 301 302 302 301 301 303 302 301 307 310 311 307 309 309 308 313 313 315 317 320 318 316 314 314 314 311 310 311 312 312 313 314 314 315 317 317 317 318 318 318 318
300 300 300 300 300 301 300 300 301 301 302 305 310 311 312 314 315 318 318 312 314 317 320 320 317 315 313 312 310 310 312 310 313 313 314 313 314 315 317 317 316 318 318 318 318
301 300 300 300 300 300 300 301 302 311 309 312 312 313 314 315 317 318 319 316 316 318 319 319 317 312 312 307 313 311 312 312 313 315 314 313 314 314 317 316 316 317 317 318 319
301 301 301 301 301 300 301 302 310 313 314 316 316 316 316 317 317 315 319 318 316 318 319 319 317 317 314 313 312 314 314 314 314 315 314 313 315 315 315 315 315 318 319 320 321
301 301 301 301 301 301 303 308 310 311 313 313 314 315 314 314 315 314 313 318 318 318 315 318 320 318 316 315 314 314 315 315 315 315 313 314 314 315 314 315 316 318 320 320 322
301 301 301 301 301 304 305 304 305 309 309 313 314 315 315 316 316 315 315 319 318 318 316 316 320 319 318 318 318 315 315 316 315 316 315 315 316 315 316 316 319 320 321 321 322
303 303 301 301 303 302 303 302 306 311 313 316 316 317 317 316 316 316 316 319 316 318 317 316 318 320 320 319 318 317 317 317 316 317 315 316 315 317 318 318 319 321 321 324 325
303 303 303 302 301 303 303 308 311 315 312 314 321 321 318 316 318 321 318 318 317 316 315 318 318 319 321 320 320 319 318 317 317 317 314 316 316 315 316 318 317 318 320 327 328
301 302 303 303 303 304 305 309 313 314 315 316 323 323 320 318 319 322 319 320 318 317 316 317 319 319 319 320 321 320 319 318 317 315 315 315 316 315 316 318 319 318 323 332 338
301 301 302 303 305 305 307 310 311 316 313 319 323 320 321 322 323 323 323 323 321 320 319 318 319 320 321 321 320 319 318 319 317 315 314 314 316 315 318 319 320 320 322 328 328
302 301 302 311 309 310 307 311 314 313 314 314 314 315 319 319 321 321 324 324 321 321 322 323 323 322 321 320 318 316 318 313 316 317 314 318 317 315 318 322 323 323 327 329 330
302 302 307 312 311 309 311 313 313 314 312 313 315 317 321 319 320 320 323 323 322 321 323 325 325 322 321 320 318 319 316 315 315 324 320 319 319 326 326 323 324 326 328 330 331
302 302 314 314 314 312 312 313 311 311 311 313 318 319 321 322 320 320 324 323 322 322 320 322 324 321 321 321 320 319 316 316 319 324 327 322 330 332 329 327 324 323 323 329 336
302 304 312 315 312 312 316 313 315 315 315 317 318 319 319 321 320 322 324 323 322 321 321 320 319 321 323 322 322 319 318 317 318 319 322 326 327 328 327 324 324 321 323 329 334
302 301 312 310 308 311 313 312 311 312 313 315 317 318 320 315 314 314 322 321 321 321 323 317 321 322 320 322 321 323 320 317 318 320 321 327 326 327 325 323 324 324 325 325 328
303 304 311 310 311 311 310 310 311 313 314 315 317 317 318 318 318 319 320 319 321 322 324 320 320 322 323 322 322 325 320 318 318 320 325 325 325 325 325 324 322 321 324 325 326
304 306 309 307 306 307 307 309 311 312 313 313 315 316 314 315 316 320 320 320 319 321 322 322 320 320 321 325 324 325 324 325 321 322 325 325 329 326 325 324 323 320 323 324 324
306 308 306 303 305 304 306 309 310 312 312 313 315 315 313 313 314 317 319 319 319 320 321 323 323 322 320 324 323 325 326 326 326 325 324 325 327 324 323 323 322 321 320 320 320
305 303 303 304 305 306 306 309 311 311 311 314 315 314 311 312 312 317 316 319 319 320 321 318 323 322 320 320 321 325 325 325 326 326 325 324 327 324 321 322 319 321 321 323 321
301 302 303 304 304 304 308 307 309 308 310 310 313 314 312 311 313 314 314 316 316 319 320 318 321 323 323 325 321 324 323 324 324 324 327 327 324 322 323 320 319 320 321 319 318
Wind_Speed
16 17 18 18 18 18 19 18 18 18 19 22 23 24 24 24 26 26 35 29 22 16 16 19 14 11 7 11 15 6 3 5 6 5 7 11 6 13 15 21 12 7 25 33 31
17 17 17 16 17 18 19 20 20 21 22 23 21 23 26 27 30 36 32 25 23 25 26 20 23 12 7 9 8 7 6 9 7 5 7 14 4 16 6 13 10 17 17 28 28
20 20 18 18 19 19 19 19 20 21 22 23 24 27 25 23 30 19 8 8 2 23 28 21 11 14 11 14 8 6 7 8 7 22 28 21 7 13 2 4 3 9 9 2 20
20 20 19 20 21 23 23 22 22 21 21 22 22 24 24 19 7 3 7 2 11 2 22 23 16 6 6 8 17 5 8 17 18 29 19 12 16 5 6 11 13 14 11 8 6
21 21 21 21 23 24 24 24 25 25 25 22 21 20 20 14 35 24 17 16 20 8 19 24 23 13 4 6 18 9 5 15 22 30 35 31 21 14 13 13 15 17 20 19 14
24 23 23 24 25 26 28 28 27 26 27 25 21 13 13 18 12 5 10 26 23 13 17 25 15 27 7 9 8 6 21 27 29 29 31 18 21 13 15 13 16 19 23 26 28
26 27 28 29 29 29 30 30 31 28 27 25 26 13 20 48 22 23 12 12 15 20 21 21 27 19 16 6 21 23 10 12 15 15 11 22 17 11 17 16 17 19 24 27 30
27 29 30 31 29 30 30 31 33 29 27 28 16 11 18 29 27 25 26 26 23 20 22 22 23 30 11 9 10 5 6 17 9 8 11 14 26 11 16 20 23 27 28 31 32
26 27 29 30 30 29 30 31 32 32 30 13 7 12 16 14 11 7 8 30 21 17 23 20 17 18 13 6 5 5 10 7 4 10 8 12 23 8 25 24 25 31 32 34 38
27 27 28 29 31 31 32 32 28 15 3 6 7 8 19 17 3 16 7 12 21 13 22 23 14 8 12 5 13 5 2 5 7 5 8 10 19 7 19 22 26 33 33 36 32
28 29 30 30 31 31 33 31 10 2 3 12 13 22 20 13 17 19 6 10 20 9 11 16 6 20 16 13 5 5 6 8 5 13 6 10 19 17 20 19 17 26 25 25 30
30 31 32 32 32 32 23 11 12 16 16 24 43 49 55 33 28 33 19 13 11 13 7 8 20 9 8 7 10 10 9 16 6 13 6 14 19 21 14 16 25 29 28 27 25
31 32 33 33 32 20 16 20 19 21 9 16 28 28 31 28 29 36 13 23 7 11 12 15 9 17 11 12 12 13 15 13 12 8 8 6 16 9 8 20 25 27 28 25 19
33 33 34 36 22 24 25 10 12 13 4 8 5 7 14 13 9 29 22 17 7 17 12 12 19 14 20 16 13 15 16 13 17 9 8 5 6 4 6 9 7 16 17 14 9
35 36 36 35 36 30 18 4 0 5 5 6 3 6 10 18 4 6 25 23 12 7 8 12 17 18 19 22 18 16 11 15 20 15 5 8 2 7 4 7 7 9 11 11 16
37 36 39 37 35 18 4 3 5 3 8 4 6 11 4 8 11 10 12 21 17 8 13 10 14 18 21 19 19 18 15 11 16 4 6 17 7 5 5 7 5 3 22 25 35
39 36 34 32 26 10 3 4 3 3 8 2 6 10 3 5 6 11 9 11 7 11 12 11 16 12 14 17 21 18 12 4 4 5 8 7 6 7 6 5 5 6 24 29 36
40 37 30 18 4 6 6 3 2 6 9 17 16 20 4 3 4 12 5 9 13 9 3 5 8 14 12 18 8 5 16 5 5 4 5 1 5 6 8 2 4 21 34 35 35
40 37 16 5 7 10 8 2 5 3 8 12 24 8 1 2 4 5 5 6 5 14 8 5 7 3 14 11 10 12 6 17 2 0 3 1 6 5 14 13 12 27 24 33 32
42 30 16 6 5 10 3 4 5 7 17 19 9 8 7 5 4 3 7 6 7 14 10 9 3 5 5 2 11 11 5 4 2 4 3 4 3 1 10 11 3 13 14 22 33
29 12 11 13 11 5 2 4 11 25 23 6 5 8 10 14 7 7 8 5 10 16 13 11 10 4 4 8 13 6 7 4 7 6 4 2 1 3 6 8 8 7 15 25 27
18 4 4 18 2 1 2 5 24 23 30 6 8 14 3 1 3 2 6 3 3 1 5 6 4 5 8 1 4 5 5 5 5 4 4 5 3 1 9 11 8 11 20 31 29
17 9 10 17 4 6 7 12 18 15 14 6 3 2 4 4 5 13 4 4 1 3 3 4 0 2 2 2 2 5 6 12 5 5 7 7 4 3 11 9 11 11 22 29 32
8 4 8 9 12 4 8 7 12 14 12 15 9 8 3 5 3 7 4 3 3 3 7 1 4 5 6 3 2 6 3 5 6 4 5 5 7 7 11 7 3 9 22 22 20
5 3 7 4 10 13 11 5 13 12 8 25 3 2 0 5 5 5 6 2 3 2 2 2 7 4 3 3 5 2 5 4 4 3 5 6 9 12 15 15 13 12 18 23 19
7 7 8 14 13 7 6 4 13 20 12 11 10 10 9 6 10 8 10 4 4 5 3 3 2 4 3 4 1 8 6 6 4 7 6 3 7 4 8 18 18 18 10 17 21
14 16 10 6 4 6 5 11 19 18 8 21 17 12 7 13 10 15 23 19 11 6 5 4 4 3 5 15 12 3 13 9 6 5 5 5 5 10 5 7 5 21 27 26 25
Wind_Direction
333 330 327 326 325 324 320 317 315 314 315 315 314 313 310 307 300 288 275 273 272 259 244 240 233 211 212 216 208 197 117 219 237 191 246 273 10 340 337 344 11 50 153 162 165
339 335 329 327 326 325 325 322 320 317 315 315 310 311 312 314 309 292 288 274 253 243 245 223 227 209 204 222 208 182 176 218 219 217 269 283 321 310 323 342 355 34 125 153 157
335 334 332 331 329 328 326 323 320 317 314 311 312 312 310 319 311 294 106 73 287 223 221 216 226 217 212 228 202 197 219 221 268 250 264 275 299 293 263 301 241 330 348 95 166
331 331 331 327 327 328 328 326 322 317 313 309 306 307 306 311 281 98 191 174 2 238 206 215 223 221 213 206 217 250 233 222 251 265 270 271 289 254 229 253 282 297 305 293 276
331 330 326 324 323 322 320 318 317 315 313 310 306 308 309 276 258 259 253 261 287 268 209 207 217 208 207 212 229 231 235 258 257 257 261 269 265 260 226 249 272 284 287 285 276
327 324 320 317 316 313 312 311 309 306 308 306 303 300 283 259 296 318 224 240 251 246 228 213 213 220 238 237 205 238 222 244 254 259 260 256 263 256 260 248 252 271 277 275 276
325 322 319 316 313 311 308 308 304 303 301 297 295 279 265 261 268 277 250 223 254 241 233 235 225 192 210 292 243 244 262 266 243 245 240 255 263 233 251 264 257 253 261 264 269
329 327 323 320 318 315 313 309 303 305 298 290 283 259 252 284 289 272 240 231 242 235 232 252 239 228 241 286 316 207 211 250 263 242 262 210 256 248 256 260 263 265 265 266 263
328 327 323 323 324 321 318 311 313 304 286 262 227 221 262 290 277 338 244 228 219 224 232 237 224 218 233 216 315 220 248 234 257 209 221 200 255 237 251 245 245 254 262 263 263
334 332 328 328 324 328 320 319 325 313 246 168 218 223 260 254 64 331 282 222 204 212 228 221 216 205 225 171 218 235 229 232 215 250 202 247 254 258 254 237 238 247 257 256 243
337 334 330 329 327 329 322 327 352 328 218 227 236 222 258 259 273 289 300 196 202 219 204 211 195 223 224 229 245 262 232 254 230 236 216 249 262 259 253 241 236 244 247 242 237
338 334 330 329 328 325 322 326 350 321 296 268 259 255 262 256 273 273 239 206 181 215 183 234 232 230 216 226 201 229 256 255 295 260 202 252 257 253 234 230 234 235 245 252 257
341 337 332 327 328 322 323 309 315 338 279 282 261 252 251 225 235 250 238 199 183 198 207 221 248 212 226 233 232 227 236 249 247 293 265 274 287 233 224 214 226 236 249 258 238
339 337 331 327 330 316 329 343 310 315 302 280 242 265 209 190 236 241 235 198 208 202 206 235 231 257 213 234 226 233 232 246 259 261 259 134 270 248 200 201 207 232 238 186 162
335 332 329 325 315 314 325 313 265 119 327 273 330 66 160 167 233 214 204 201 197 190 178 216 196 222 233 228 234 251 240 241 249 250 260 263 202 268 240 234 241 228 197 153 125
331 329 325 320 310 330 280 337 120 66 250 288 31 7 74 292 314 341 167 208 212 210 232 237 230 207 229 237 235 245 247 302 294 227 238 246 164 269 194 200 247 159 157 130 116
331 329 321 312 302 307 228 33 53 197 310 236 47 360 12 312 285 306 199 210 195 193 226 243 248 260 263 224 235 223 222 204 274 194 220 200 190 214 246 209 243 226 158 133 121
334 332 328 323 135 192 178 68 215 275 264 310 345 333 315 13 279 231 277 197 198 232 152 182 251 233 241 227 194 213 195 181 209 225 221 276 249 258 268 51 139 141 133 124 115
338 339 345 79 148 135 149 154 224 252 308 342 326 305 204 295 228 342 237 219 238 190 183 175 242 298 210 209 174 241 195 203 173 346 83 283 317 37 356 111 133 128 128 122 118
341 345 9 335 205 157 58 238 255 287 296 306 295 268 289 306 302 325 230 223 220 209 184 185 295 261 239 230 250 225 209 152 53 155 98 305 89 27 348 350 324 112 96 116 119
348 346 23 29 149 148 236 250 314 313 317 290 268 285 278 271 244 267 250 220 206 209 216 166 177 258 345 196 226 243 223 198 131 138 136 185 228 155 50 18 23 4 86 113 117
349 344 78 324 236 218 339 6 307 296 323 264 229 277 289 107 286 343 264 278 18 68 183 183 151 218 229 259 326 228 270 157 153 189 159 114 253 118 69 46 18 48 73 90 105
334 298 348 2 34 355 308 301 295 322 322 297 256 198 270 276 254 231 201 306 180 299 199 167 125 118 336 352 248 201 233 219 99 126 200 161 222 168 87 53 22 51 81 96 102
336 329 337 343 29 355 317 307 340 344 314 343 305 283 320 265 204 289 223 166 201 200 333 53 157 182 178 162 243 168 196 115 155 132 148 186 148 143 112 130 59 65 95 88 89
346 350 16 314 331 318 311 327 334 339 331 311 259 245 39 288 286 234 210 138 219 105 280 326 185 140 69 323 2 3 98 115 103 123 132 185 147 161 148 144 145 144 113 111 110
352 345 331 293 294 308 307 327 316 330 328 313 310 294 188 227 252 302 325 212 201 156 281 311 49 111 350 308 221 252 135 113 106 102 96 89 110 153 146 141 140 127 142 107 113
332 326 303 281 289 320 293 331 315 331 306 317 315 280 242 288 299 267 274 262 268 150 211 127 138 139 181 173 167 239 180 188 149 147 144 170 134 142 134 122 185 142 138 127 126